Terug naar catalogus

DELTA 1 DEB

ActiefSSO
NORAD 42647·DEBRIS·🇺🇸 United States

Gelanceerd Jun 12, 1975 vanaf Vandenberg Space Force Base

Loading…

Volgende Passages (komende 24 uur)

TLE

VerouderendSource: Space-Track

Epoch: Sep 9, 2026, 03:44 UTC

1 42647U 75052MG  26252.15555699 -.00000005  00000-0  73618-4 0  9999
2 42647  99.7547  38.9398 0066144 100.1746 260.6847 13.32610810 94838

Volg DELTA 1 DEB in realtime met AllMySat

Download on the App Store